Regional Weather Roundup
Issued by NWS

Home | Current Version | Previous Version | Text Only | Print | Product List | Glossary On
Versions: 1 2 3 4 5 6 7 8 9 10 11 12 13 14 15 16 17 18 19 20 21 22 23 24 25 26 27 28 29 30 31 32 33 34 35 36 37 38 39 40 41 42 43 44 45 46 47 48 49 50
000
ASUS45 KABQ 040410
RWRNM
NEW MEXICO REGIONAL WEATHER ROUNDUP
NATIONAL WEATHER SERVICE ALBUQUERQUE NM
1000 PM MDT TUE MAY 03 2016

NOTE: "FAIR" MEANS FEW OR NO CLOUDS BELOW 12,000 FEET AGL WITH NO
       SIGNIFICANT WEATHER OR OBSTRUCTIONS TO VISION.

      THIS PRODUCT IS RELEASED AS TWO VERSIONS.  ONE VERSION NEAR
      THE TOP OF THE HOUR CONTAINING PRELIMINARY DATA FROM ALBUQUERQUE
      AND OTHER STATIONS.  A FINAL VERSION WITH ADDITIONAL DATA IS
      ISSUED ABOUT 10 MINUTES AFTER THE HOUR.

NMZ501-503-504-510>518-040500-
NORTHWEST PLATEAU/NORTHCENTRAL MOUNTAINS

CITY           SKY/WX    TMP DP  RH WIND       PRES   REMARKS
FARMINGTON     FAIR      60  32  34 W3        30.20R
LOS ALAMOS     FAIR     N/A N/A N/A SW8       30.33R
SANTA FE       FAIR      53  32  44 E5        30.28R
TAOS           FAIR      46  28  49 E6        30.32R
ANGEL FIRE     FAIR      33  29  85 CALM      30.40R

$$
NMZ402-403-502-505>509-040500-
WESTCENTRAL MOUNTAINS/SOUTHWEST MOUNTAINS

CITY           SKY/WX    TMP DP  RH WIND       PRES   REMARKS
GALLUP         FAIR      50  32  50 CALM      30.26R
GRANTS         FAIR      52  34  50 SW6       30.29R
SILVER CITY      N/A     63  28  27 NE10      30.19R

$$
NMZ407-409-411-412-040500-
SOUTHERN DESERTS

CITY           SKY/WX    TMP DP  RH WIND       PRES   REMARKS
LORDSBURG      FAIR      63  21  20 SE7       30.09R
DEMING         FAIR      67  27  22 NE8       30.11R
LAS CRUCES     FAIR      64  26  23 NE3       30.15R
HOLLOMAN AFB   FAIR      65  32  28 NE9       30.13R
ALAMOGORDO     FAIR      68  32  26 E10       30.14R
T OR C         FAIR      63  26  24 N5        30.16R

$$
NMZ519>523-040500-
CENTRAL VALLEYS/CENTRAL HIGHLANDS

CITY           SKY/WX    TMP DP  RH WIND       PRES   REMARKS
ALBUQUERQUE    FAIR      63  30  28 E13       30.22R
DOUBLE EAGLE   CLEAR     54  32  43 SE8       30.25R
MORIARTY ARPT  FAIR      47  28  48 CALM      30.30R
CLINES CORNERS FAIR      47  29  49 E6        30.31R
BELEN          FAIR      59  27  29 SE3       30.22R
SOCORRO        FAIR      57  24  27 CALM      30.20R

$$
NMZ524>526-539-540-040500-
SOUTHCENTRAL MOUNTAINS

CITY           SKY/WX    TMP DP  RH WIND       PRES   REMARKS
RUIDOSO          N/A     50  32  50 S8        30.33S

$$
NMZ527>531-040500-
NORTHEAST HIGHLANDS/NORTHEAST PLAINS

CITY           SKY/WX    TMP DP  RH WIND       PRES   REMARKS
LAS VEGAS      FAIR      46  35  65 N7        30.33R
RATON          FAIR      47  25  42 N13       30.29R
CLAYTON        FAIR      47  31  53 N6        30.22R

$$
NMZ532>537-040500-
EASTCENTRAL PLAINS

CITY           SKY/WX    TMP DP  RH WIND       PRES   REMARKS
TUCUMCARI      FAIR      50  32  50 NE8       30.19R
CANNON AFB     FAIR      51  29  44 NE7       30.21R
CLOVIS AIRPORT FAIR      48  32  53 NE8       30.22R

$$
NMZ028-029-538-040500-
SOUTHEAST PLAINS

CITY           SKY/WX    TMP DP  RH WIND       PRES   REMARKS
ROSWELL        FAIR      62  31  31 NE5       30.16R
ARTESIA        FAIR      63  34  34 NE3       30.17R
CARLSBAD       FAIR      66  35  31 NE7       30.14R
HOBBS            N/A     59  43  55 E8        30.19R


$$




USA.gov is the U.S. government's official web portal to all federal, state and local government web resources and services.